{"data":{"norad_id":54758,"intl_designator":"2022-175A","name":"STARLINK-5464","alt_names":[],"object_type":"PAYLOAD","status":"ACTIVE","operator":null,"country":"US","launch_date":"2022-12-17","launch_site_code":"AFETR","launch_vehicle":null,"mission":null,"orbit_class":"UNKNOWN","rcs_meters":null,"size_class":null,"mass_kg":null,"dimensions":null,"purposes":["comms"],"wikipedia_slug":null,"has_3d_model":false,"image_url":null,"decayed_at":null,"tle_current":{"epoch":"2026-09-20T22:00:03.000096Z","epoch_age_seconds":53930,"freshness":"FRESH","line1":"1 54758U 22175A   26263.91670139  .00022087  00000+0  72117-3 0  9990","line2":"2 54758  53.1566 230.8487 0001420  96.2258 200.1775 15.31709174  5812","mean_motion":15.31709174,"eccentricity":0.000142,"inclination_deg":53.1566,"raan_deg":230.8487,"arg_perigee_deg":96.2258,"mean_anomaly_deg":200.1775,"bstar":0.00072117,"rev_number":581,"period_min":94.012624879663,"perigee_km":469.74011149548,"apogee_km":471.68518479555,"semimajor_km":6848.8496481455,"source":"CELESTRAK","updated_at":"2026-09-21T09:00:33.119235Z"}}}